{"data":{"norad_id":55669,"intl_designator":"2023-021AT","name":"STARLINK-5459","alt_names":[],"object_type":"PAYLOAD","status":"ACTIVE","operator":null,"country":"US","launch_date":"2023-02-17","launch_site_code":"AFWTR","launch_vehicle":null,"mission":null,"orbit_class":"UNKNOWN","rcs_meters":null,"size_class":null,"mass_kg":null,"dimensions":null,"purposes":["comms"],"wikipedia_slug":null,"has_3d_model":false,"image_url":null,"decayed_at":null,"tle_current":{"epoch":"2026-05-24T22:12:18.899136Z","epoch_age_seconds":78978,"freshness":"FRESH","line1":"1 55669U 23021AT  26144.92521874  .00000121  00000+0  17939-4 0  9990","line2":"2 55669  69.9997 332.2477 0002647 268.5863  91.4993 14.98330053180692","mean_motion":14.98330053,"eccentricity":0.0002647,"inclination_deg":69.9997,"raan_deg":332.2477,"arg_perigee_deg":268.5863,"mean_anomaly_deg":91.4993,"bstar":1.7939e-5,"rev_number":18069,"period_min":96.106995726128,"perigee_km":570.21601103144,"apogee_km":573.89544306114,"semimajor_km":6950.1927270463,"source":"CELESTRAK","updated_at":"2026-05-25T13:38:17.875743Z"}}}